Date String (YYYY-MM-DD hh:mm:ss) UTC,Instrument flags,Ambient pressure (hPa),Sample flow (lpm),Bypass flow (lpm),Sample temperature (°C),Ambient temperature (°C),ASC tube jacket temperature (°C),LED temperature (°C),Box temperature (°C),Sample RH (%),Span deviation,Mass concentration (μg/m³),Mass concentration (μg/m³),Mass concentration (μg/m³)
DateTimeUTC,F1_M11,P_M11,Q1_M11,Q2_M11,T1_M11,T2_M11,T3_M11,T4_M11,T5_M11,U1_M11,ZSPAN_M11,X2_M11,X0_M11,X1_M11
2022-08-18 21:00:00,,0829.9,5.00,0.00,29.3,28.1,00.0,38.0,31.3,20.3,0000.0,0006.10,0015.14,0005.52
2022-08-18 21:01:00,,0829.9,5.00,0.00,29.4,28.3,00.0,38.0,31.4,20.5,0000.0,0006.13,0015.32,0005.52
2022-08-18 21:02:00,,0829.9,5.00,0.00,29.4,28.4,00.0,38.1,31.4,20.4,0000.0,0006.12,0015.29,0005.52
2022-08-18 21:03:00,,0829.9,5.00,0.00,29.4,28.0,00.0,38.0,31.3,20.1,0000.0,0006.11,0015.10,0005.51
2022-08-18 21:04:00,,0829.8,5.00,0.00,29.4,27.4,00.0,38.0,31.1,20.2,0000.0,0006.11,0014.18,0005.50
2022-08-18 21:05:00,,0829.8,5.00,0.00,29.3,27.2,00.0,38.0,31.1,20.2,0000.0,0006.13,0013.82,0005.50
2022-08-18 21:06:00,,0829.8,5.00,0.00,29.3,27.3,00.0,38.0,31.0,20.2,0000.0,0006.16,0013.33,0005.51
2022-08-18 21:07:00,,0829.9,5.00,0.00,29.2,27.4,00.0,38.0,31.0,20.1,0000.0,0006.15,0013.45,0005.51
2022-08-18 21:08:00,,0829.8,5.00,0.00,29.3,27.6,00.0,38.0,31.1,19.9,0000.0,0006.18,0012.94,0005.51
2022-08-18 21:09:00,,0829.9,5.00,0.00,29.3,27.9,00.0,38.0,31.2,20.2,0000.0,0006.14,0013.08,0005.52
2022-08-18 21:10:00,,0829.9,5.00,0.00,29.3,28.1,00.0,38.0,31.3,20.3,0000.0,0006.10,0012.26,0005.50
2022-08-18 21:11:00,,0829.9,5.00,0.00,29.4,28.2,00.0,38.0,31.4,20.2,0000.0,0006.10,0012.49,0005.50
2022-08-18 21:12:00,,0829.9,5.01,0.00,29.4,28.4,00.0,38.1,31.4,20.9,0000.0,0006.07,0012.73,0005.48
2022-08-18 21:13:00,,0829.9,5.00,0.00,29.5,28.1,00.0,38.1,31.3,20.4,0000.0,0006.09,0012.92,0005.47
2022-08-18 21:14:00,,0829.8,5.00,0.00,29.4,27.5,00.0,38.0,31.1,20.6,0000.0,0006.13,0013.18,0005.47
2022-08-18 21:15:00,,0829.8,5.01,0.00,29.3,27.2,00.0,38.0,31.1,20.3,0000.0,0006.14,0013.29,0005.46
2022-08-18 21:16:00,,0829.8,5.00,0.00,29.3,27.3,00.0,38.0,31.1,20.5,0000.0,0006.12,0013.21,0005.45
2022-08-18 21:17:00,,0829.8,4.99,0.00,29.3,27.5,00.0,38.0,31.0,20.4,0000.0,0006.07,0013.10,0005.43
2022-08-18 21:18:00,,0829.8,5.00,0.00,29.3,27.7,00.0,38.0,31.1,20.6,0000.0,0006.07,0013.23,0005.43
2022-08-18 21:19:00,,0829.8,5.00,0.00,29.3,27.9,00.0,38.0,31.2,20.3,0000.0,0006.05,0012.94,0005.43
2022-08-18 21:20:00,,0829.8,5.00,0.00,29.3,28.1,00.0,38.0,31.3,20.3,0000.0,0006.10,0012.35,0005.43
2022-08-18 21:21:00,,0829.7,5.00,0.00,29.4,28.2,00.0,38.1,31.4,20.1,0000.0,0006.12,0012.37,0005.44
2022-08-18 21:22:00,,0829.8,5.00,0.00,29.4,28.3,00.0,38.1,31.4,20.0,0000.0,0006.16,0011.93,0005.44
2022-08-18 21:23:00,,0829.8,4.99,0.00,29.4,27.8,00.0,38.0,31.2,20.0,0000.0,0006.20,0011.69,0005.46
2022-08-18 21:24:00,,0829.8,5.01,0.00,29.3,27.3,00.0,38.0,31.1,20.3,0000.0,0006.20,0011.85,0005.49
2022-08-18 21:25:00,,0829.7,4.99,0.00,29.3,27.2,00.0,38.0,31.1,20.2,0000.0,0006.15,0011.84,0005.49
2022-08-18 21:26:00,,0829.6,5.01,0.00,29.3,27.3,00.0,38.0,31.0,20.6,0000.0,0006.10,0011.70,0005.50
2022-08-18 21:27:00,,0829.7,5.00,0.00,29.2,27.5,00.0,38.0,31.0,21.5,0000.0,0006.13,0012.53,0005.50
2022-08-18 21:28:00,,0829.7,5.00,0.00,29.3,27.7,00.0,38.0,31.1,21.0,0000.0,0006.19,0012.97,0005.52
2022-08-18 21:29:00,,0829.7,5.00,0.00,29.3,27.9,00.0,38.0,31.2,21.2,0000.0,0006.21,0012.34,0005.52
2022-08-18 21:30:00,,0829.7,5.00,0.00,29.3,28.1,00.0,38.0,31.3,20.1,0000.0,0006.23,0012.07,0005.52
2022-08-18 21:31:00,,0829.7,5.01,0.00,29.4,28.3,00.0,38.1,31.4,20.3,0000.0,0006.24,0012.29,0005.52
2022-08-18 21:32:00,,0829.6,5.00,0.00,29.5,28.4,00.0,38.1,31.4,20.1,0000.0,0006.19,0012.49,0005.50
2022-08-18 21:33:00,,0829.7,5.00,0.00,29.5,28.0,00.0,38.1,31.3,19.5,0000.0,0006.18,0012.71,0005.49
2022-08-18 21:34:00,,0829.7,5.00,0.00,29.4,27.4,00.0,38.0,31.1,19.7,0000.0,0006.14,0012.54,0005.48
2022-08-18 21:35:00,,0829.6,4.99,0.00,29.3,27.3,00.0,38.0,31.1,20.2,0000.0,0006.12,0012.19,0005.46
2022-08-18 21:36:00,,0829.6,5.01,0.00,29.3,27.4,00.0,38.0,31.0,20.6,0000.0,0006.12,0011.75,0005.45
2022-08-18 21:37:00,,0829.5,5.01,0.00,29.3,27.5,00.0,38.0,31.0,20.0,0000.0,0006.14,0011.64,0005.44
2022-08-18 21:38:00,,0829.5,5.00,0.00,29.3,27.7,00.0,38.0,31.1,20.1,0000.0,0006.10,0010.92,0005.42
2022-08-18 21:39:00,,0829.5,5.00,0.00,29.3,27.9,00.0,38.0,31.2,20.1,0000.0,0006.04,0010.38,0005.42
2022-08-18 21:40:00,,0829.5,5.01,0.00,29.4,28.1,00.0,38.0,31.3,20.4,0000.0,0006.04,0010.85,0005.41
2022-08-18 21:41:00,,0829.5,5.00,0.00,29.4,28.3,00.0,38.1,31.4,19.7,0000.0,0006.02,0011.53,0005.41
2022-08-18 21:42:00,,0829.6,5.00,0.00,29.5,28.3,00.0,38.1,31.4,20.0,0000.0,0005.99,0011.85,0005.40
2022-08-18 21:43:00,,0829.5,4.98,0.00,29.4,27.6,00.0,38.0,31.2,19.9,0000.0,0006.04,0011.65,0005.42
2022-08-18 21:44:00,,0829.5,5.01,0.00,29.3,27.3,00.0,38.0,31.1,20.0,0000.0,0006.04,0011.26,0005.43
2022-08-18 21:45:00,,0829.4,4.99,0.00,29.3,27.3,00.0,38.0,31.1,20.1,0000.0,0006.05,0011.54,0005.44
2022-08-18 21:46:00,,0829.5,5.01,0.00,29.3,27.4,00.0,38.0,31.0,19.9,0000.0,0006.11,0011.89,0005.45
2022-08-18 21:47:00,,0829.5,5.00,0.00,29.3,27.6,00.0,38.0,31.0,20.3,0000.0,0006.15,0012.46,0005.46
2022-08-18 21:48:00,,0829.5,5.00,0.00,29.3,27.8,00.0,38.0,31.1,20.5,0000.0,0006.16,0012.80,0005.47
2022-08-18 21:49:00,,0829.5,5.00,0.00,29.3,28.0,00.0,38.0,31.2,20.7,0000.0,0006.19,0013.37,0005.50
2022-08-18 21:50:00,,0829.5,5.00,0.00,29.4,28.2,00.0,38.1,31.3,20.5,0000.0,0006.25,0013.90,0005.52
2022-08-18 21:51:00,,0829.6,5.00,0.00,29.4,28.3,00.0,38.1,31.4,19.9,0000.0,0006.28,0013.50,0005.56
2022-08-18 21:52:00,,0829.5,4.99,0.00,29.4,28.0,00.0,38.0,31.3,20.2,0000.0,0006.34,0012.79,0005.58
2022-08-18 21:53:00,,0829.5,5.00,0.00,29.4,27.3,00.0,38.0,31.1,19.7,0000.0,0006.35,0012.65,0005.60
2022-08-18 21:54:00,,0829.5,4.99,0.00,29.3,27.2,00.0,38.0,31.1,19.4,0000.0,0006.34,0012.68,0005.63
2022-08-18 21:55:00,,0829.5,5.01,0.00,29.3,27.2,00.0,38.0,31.0,20.5,0000.0,0006.39,0012.77,0005.64
2022-08-18 21:56:00,,0829.4,4.98,0.00,29.2,27.4,00.0,38.0,31.0,20.3,0000.0,0006.38,0012.50,0005.64
2022-08-18 21:57:00,,0829.4,4.99,0.00,29.3,27.6,00.0,38.0,31.1,19.7,0000.0,0006.34,0013.51,0005.66
2022-08-18 21:58:00,,0829.4,5.00,0.00,29.3,27.8,00.0,38.0,31.2,19.6,0000.0,0006.36,0013.84,0005.69
2022-08-18 21:59:00,,0829.5,5.01,0.00,29.3,28.0,00.0,38.0,31.3,20.0,0000.0,0006.36,0013.77,0005.72
